date,time,DOY,Ta_1_1_1,Pa_1_1_1,RH_1_1_1,LWin_1_1_1,LWout_1_1_1,SWin_1_1_1,SWout_1_1_1,PPFD_1_1_1,MWS_1_1_1,WD_1_1_1,SWC_1_1_1,Ts_1_1_1
[yyyy-mm-dd],[HH:MM],[ddd.ddd],[K],[Pa],[%],[W+1m-2],[W+1m-2],[W+1m-2],[W+1m-2],[µmol+1m-2s-1],[m+1s-1],[deg],[m+3m-3],[K]
2018-10-16,00:30,289.020,273.44766666666663,94768.733333333337,57.036666666666662,313.19033333333334,240.09833333333333,1.0383333333333333,-3.9793333333333338,-1.96666666666666656E-002,5.0333333333333341,194.72200000000001,0.30999999999999989,277.20933333333340
2018-10-16,01:00,289.041,273.09233333333327,94746.733333333337,59.518666666666675,311.46766666666662,238.51466666666664,1.0066666666666666,-4.0753333333333339,-2.56666666666666675E-002,5.1066666666666665,183.98833333333332,0.30999999999999989,277.19066666666663
2018-10-16,01:30,289.062,272.77433333333340,94751.300000000003,61.988666666666674,310.21233333333333,238.18033333333332,1.1600000000000001,-3.7916666666666674,-2.36666666666666727E-002,5.2166666666666659,188.59000000000003,0.30999999999999989,277.17266666666666
2018-10-16,02:00,289.083,272.81466666666677,94733.133333333331,62.855333333333334,310.49933333333331,239.57900000000004,1.1370000000000000,-3.6246666666666667,-1.30000000000000046E-002,5.3566666666666665,191.78966666666665,0.30999999999999989,277.14699999999993
2018-10-16,02:30,289.104,272.71966666666674,94722.766666666663,63.724666666666664,310.15666666666664,243.24166666666665,1.0619999999999998,-3.5466666666666660,-1.20000000000000002E-002,5.0366666666666653,185.63299999999998,0.30999999999999989,277.12466666666666
2018-10-16,03:00,289.124,272.89533333333338,94685.500000000000,63.732666666666681,312.80500000000001,287.38399999999996,0.68666666666666643,-1.0956666666666666,-1.66666666666666677E-003,5.6633333333333349,189.31100000000001,0.30999999999999989,277.10566666666665
2018-10-16,03:30,289.145,273.33233333333322,94660.500000000000,62.949999999999996,315.17966666666666,289.66233333333338,0.45833333333333331,-1.1280000000000001,3.00000000000000006E-003,5.5300000000000002,191.42266666666669,0.30999999999999989,277.08533333333338
2018-10-16,04:00,289.166,273.62766666666670,94636.666666666672,62.381000000000000,316.33599999999996,292.13666666666666,0.46500000000000002,-1.0240000000000000,-1.60000000000000038E-002,6.6299999999999981,195.94333333333330,0.30999999999999989,277.07266666666675
2018-10-16,04:30,289.187,274.02100000000007,94609.933333333334,60.749333333333325,318.16066666666671,301.14066666666662,0.38366666666666671,-0.69566666666666654,1.06666666666666646E-002,6.3133333333333335,196.40033333333335,0.30999999999999989,277.06466666666677
2018-10-16,05:00,289.208,274.31999999999994,94582.399999999994,59.232000000000006,319.35633333333340,301.55900000000008,0.31733333333333336,-0.84899999999999998,9.00000000000000105E-003,5.9133333333333349,197.66666666666666,0.30999999999999989,277.05466666666678
2018-10-16,05:30,289.229,274.72299999999984,94539.266666666663,57.415333333333351,320.86133333333339,300.49466666666666,0.40100000000000002,-0.82900000000000007,5.33333333333333316E-003,7.1500000000000004,200.73266666666666,0.30999999999999989,277.06033333333346
2018-10-16,06:00,289.249,274.85999999999990,94486.000000000000,57.610000000000007,321.73166666666668,305.67433333333338,0.22400000000000000,-0.78833333333333322,-6.00000000000000099E-003,6.6500000000000012,203.35566666666668,0.30999999999999989,277.05166666666668
2018-10-16,06:30,289.270,274.84333333333331,94433.466666666660,58.346000000000004,322.04466666666667,311.38799999999998,0.12433333333333337,-0.55533333333333335,-1.63333333333333316E-002,6.6133333333333333,193.18833333333333,0.30999999999999989,277.05700000000007
2018-10-16,07:00,289.291,274.59566666666672,94384.000000000000,62.543666666666660,321.17500000000001,313.63166666666672,7.63333333333333225E-002,-0.57733333333333337,-1.20000000000000002E-002,6.3866666666666667,196.13333333333333,0.30999999999999989,277.06433333333342
2018-10-16,07:30,289.312,274.44333333333327,94334.266666666663,66.045666666666676,320.52966666666663,312.25733333333335,0.19699999999999998,-0.49899999999999994,-2.00000000000000039E-002,6.2966666666666669,188.11066666666665,0.30999999999999989,277.06766666666670
2018-10-16,08:00,289.333,274.35433333333327,94300.066666666666,66.512333333333331,320.29033333333331,309.97200000000004,0.18533333333333341,-0.50266666666666671,-2.10000000000000048E-002,5.2999999999999998,188.24466666666669,0.30999999999999989,277.07433333333336
2018-10-16,08:30,289.354,274.57233333333329,94269.066666666666,63.807666666666677,320.99066666666670,306.91899999999993,0.24799999999999997,-0.58566666666666656,-2.03333333333333317E-002,5.5433333333333330,185.98833333333332,0.30999999999999989,277.08466666666669
2018-10-16,09:00,289.374,274.81666666666661,94239.633333333331,61.474666666666664,321.71266666666662,304.57366666666672,0.32133333333333336,-0.76233333333333309,-1.60000000000000003E-002,6.0600000000000005,192.72300000000001,0.30999999999999989,277.09733333333332
2018-10-16,09:30,289.395,275.10300000000001,94220.399999999994,59.932666666666684,322.67900000000014,298.53633333333329,0.39799999999999996,-1.0953333333333330,-1.46666666666666681E-002,5.6933333333333334,198.03333333333333,0.30999999999999989,277.10400000000004
2018-10-16,10:00,289.416,275.24133333333350,94202.233333333337,59.485666666666638,322.34633333333329,276.61533333333335,0.60333333333333339,-2.0770000000000000,-2.76666666666666762E-002,6.0999999999999996,201.93400000000003,0.30999999999999989,277.10666666666668
2018-10-16,10:30,289.437,275.22100000000017,94177.366666666669,59.903666666666666,322.36866666666663,281.00700000000001,0.61933333333333329,-1.8806666666666667,-1.50000000000000029E-002,6.1299999999999990,203.51200000000003,0.30999999999999989,277.11566666666664
2018-10-16,11:00,289.458,275.27466666666652,94152.233333333337,59.889000000000003,323.01100000000002,289.87399999999997,0.54400000000000004,-1.4636666666666660,-1.46666666666666681E-002,6.5666666666666664,201.31133333333335,0.30999999999999989,277.11433333333332
2018-10-16,11:30,289.479,275.30666666666667,94130.733333333337,60.284666666666674,322.79466666666667,276.92333333333335,0.60766666666666680,-2.0469999999999997,-8.66666666666666627E-003,6.8200000000000021,203.99966666666666,0.30999999999999989,277.11933333333332
2018-10-16,12:00,289.499,275.19900000000013,94124.699999999997,61.176666666666691,321.62266666666659,260.98066666666665,0.80533333333333335,-2.7650000000000001,0.15766666666666668,6.3033333333333337,206.58866666666665,0.30999999999999989,277.11466666666666
2018-10-16,12:30,289.520,275.01666666666665,94141.666666666672,62.485333333333315,320.46633333333335,253.92166666666668,1.5133333333333339,1.3833333333333333,11.340000000000000,6.4166666666666679,207.86700000000002,0.30999999999999989,277.11500000000001
2018-10-16,13:00,289.541,274.80766666666665,94153.966666666660,63.654000000000003,320.75933333333342,253.62066666666666,13.824000000000002,57.143999999999998,88.254000000000033,6.1366666666666658,208.07866666666669,0.30999999999999989,277.11133333333333
2018-10-16,13:30,289.562,275.01133333333348,94164.533333333340,63.577666666666666,323.23799999999994,256.02066666666667,25.554333333333332,137.05033333333333,221.15133333333333,6.2399999999999984,209.24433333333334,0.30999999999999989,277.10433333333344
2018-10-16,14:00,289.583,275.42700000000002,94176.866666666669,63.013999999999989,326.68866666666668,259.79700000000003,35.832999999999998,223.24500000000000,377.85233333333338,5.8366666666666642,208.93366666666668,0.30999999999999989,277.09966666666668
2018-10-16,14:30,289.604,275.97766666666672,94180.899999999994,62.096666666666664,330.72499999999985,267.21233333333333,45.979666666666667,306.33199999999999,539.96899999999994,6.6633333333333331,214.04466666666667,0.30999999999999989,277.10866666666675
2018-10-16,15:00,289.624,276.31766666666670,94182.000000000000,61.866666666666667,332.23433333333338,275.26700000000005,37.837333333333341,277.20366666666666,526.81333333333328,6.1466666666666656,215.82266666666666,0.30999999999999989,277.12733333333330
2018-10-16,15:30,289.645,277.30300000000011,94173.966666666660,60.573999999999998,339.58066666666667,276.96066666666667,61.277000000000001,451.47199999999998,846.61599999999987,6.1500000000000004,216.47766666666666,0.30999999999999989,277.15533333333332
2018-10-16,16:00,289.666,278.34733333333332,94175.633333333331,59.590333333333326,345.24366666666663,284.73000000000008,63.394666666666673,482.28033333333337,921.44466666666688,7.4933333333333341,229.62199999999999,0.30999999999999989,277.19800000000004
2018-10-16,16:30,289.687,279.11566666666670,94182.199999999997,58.574666666666658,349.75566666666668,302.54199999999997,60.799666666666681,472.44333333333327,913.09100000000012,7.0566666666666658,237.55466666666663,0.30999999999999989,277.26300000000003
2018-10-16,17:00,289.708,279.60133333333334,94168.066666666666,57.372000000000007,352.52966666666669,296.02600000000001,59.514333333333340,466.82266666666669,895.60233333333315,6.7399999999999984,242.08866666666665,0.30999999999999989,277.34466666666668
2018-10-16,17:30,289.729,279.72066666666666,94181.533333333340,53.618000000000009,350.24733333333336,295.52700000000004,42.076333333333338,339.45033333333333,656.85599999999999,7.6933333333333334,246.95633333333336,0.30999999999999989,277.45066666666668
2018-10-16,18:00,289.749,280.37666666666667,94180.666666666672,50.124333333333333,357.12666666666667,312.41033333333337,66.048000000000002,521.59733333333338,1019.0626666666666,7.8100000000000005,258.94533333333334,0.30999999999999989,277.55833333333328
2018-10-16,18:30,289.770,279.49466666666666,94209.666666666672,53.684333333333335,350.29966666666672,310.88466666666665,40.830333333333336,338.33833333333325,676.87099999999998,8.4666666666666650,266.81000000000000,0.30999999999999989,277.67966666666666
2018-10-16,19:00,289.791,278.72733333333332,94246.133333333331,54.872666666666667,347.79133333333340,317.54999999999995,45.270333333333340,363.97500000000002,704.57433333333336,9.0833333333333357,277.01133333333331,0.30999999999999989,277.80666666666662
2018-10-16,19:30,289.812,278.42333333333335,94274.666666666672,53.712666666666657,346.05466666666666,310.03966666666662,42.730333333333334,349.76866666666660,695.14799999999991,8.4000000000000004,263.32200000000000,0.30999999999999989,277.93266666666671
2018-10-16,20:00,289.833,278.22533333333337,94296.833333333328,53.437999999999988,344.43533333333329,314.76499999999999,35.767333333333333,290.46033333333327,563.17566666666664,7.2666666666666693,266.17766666666665,0.30999999999999989,278.04466666666673
2018-10-16,20:30,289.854,277.70533333333333,94328.399999999994,56.168666666666674,340.39833333333343,319.22700000000009,21.193999999999999,176.65633333333335,354.31433333333320,6.8299999999999983,277.74466666666666,0.30999999999999989,278.14133333333331
2018-10-16,21:00,289.874,277.38766666666663,94352.133333333331,58.046666666666667,338.07633333333337,318.36266666666666,14.162666666666670,114.34399999999998,228.63866666666667,6.0766666666666671,266.15566666666666,0.30999999999999989,278.20999999999992
2018-10-16,21:30,289.895,276.97766666666672,94398.699999999997,58.361333333333341,335.15866666666665,316.93266666666665,10.275000000000000,80.069000000000003,159.96666666666670,6.9733333333333336,270.39966666666663,0.30999999999999989,278.25666666666677
2018-10-16,22:00,289.916,276.86866666666651,94424.100000000006,58.022333333333336,334.14066666666673,314.57366666666661,7.5716666666666663,60.221666666666671,119.48499999999999,7.3799999999999990,269.47666666666663,0.30999999999999989,278.27300000000008
2018-10-16,22:30,289.937,276.70666666666671,94459.266666666663,59.341666666666690,332.62033333333335,314.50666666666672,3.2853333333333334,25.851999999999993,52.776666666666657,6.0400000000000000,263.01066666666668,0.30999999999999989,278.26633333333336
2018-10-16,23:00,289.958,276.40199999999993,94488.966666666660,60.204000000000015,330.71633333333318,313.89633333333342,0.92033333333333311,5.9403333333333332,13.964000000000000,6.1100000000000012,275.13266666666664,0.30999999999999989,278.25133333333338
2018-10-16,23:30,289.979,275.99999999999994,94520.199999999997,62.358666666666664,328.76133333333343,313.32166666666666,0.17233333333333339,-0.30499999999999994,1.2926666666666664,6.0933333333333328,275.03300000000002,0.30999999999999989,278.22733333333338
2018-10-17,00:00,290.000,275.81566666666674,94551.066666666666,63.633666666666656,327.83899999999994,313.46999999999997,0.21766666666666673,-0.78066666666666684,6.66666666666667295E-004,4.9000000000000004,268.95566666666667,0.30999999999999989,278.19533333333328
